Regional Weather Roundup
Issued by NWS Charleston, WV

Home | Current Version | Previous Version | Graphics & Text | Print | Product List | Glossary On
Versions: 1 2 3 4 5 6 7 8 9 10 11 12 13 14 15 16 17 18 19 20 21 22 23 24 25 26 27 28 29 30 31 32 33 34 35 36 37 38 39 40 41 42 43 44 45 46 47 48 49 50
000
ASUS41 KRLX 030310
RWRRLX
West Virginia Regional Weather Roundup
National Weather Service Charleston WV
1100 PM EDT SAT MAY 02 2015

Note: "fair" indicates few or no clouds below 12,000 feet with no
significant weather and/or obstructions to visibility.

WVZ003-030400-
Northern Panhandle of West Virginia

CITY           SKY/WX    TMP DP  RH WIND       PRES   REMARKS
WHEELING       PTCLDY    62  38  40 CALM      30.06S
$$

WVZ009-030400-
Northwest West Virginia

CITY           SKY/WX    TMP DP  RH WIND       PRES   REMARKS
PARKERSBURG    CLEAR     58  41  53 CALM      30.10R
$$

WVZ006-030400-
Western West Virginia

CITY           SKY/WX    TMP DP  RH WIND       PRES   REMARKS
HUNTINGTON     CLEAR     56  44  64 CALM      30.09R
$$

WVZ015-030400-
West Central West Virginia

CITY           SKY/WX    TMP DP  RH WIND       PRES   REMARKS
CHARLESTON     CLEAR     55  41  59 CALM      30.10R
$$

WVZ022-031-030400-
North Central West Virginia

CITY           SKY/WX    TMP DP  RH WIND       PRES   REMARKS
CLARKSBURG     CLEAR     54  42  64 CALM      30.08R
MORGANTOWN     PTCLDY    54  39  57 S3        30.08S
$$

WVZ025-035-042-045-030400-
Southern West Virginia

CITY           SKY/WX    TMP DP  RH WIND       PRES   REMARKS
BECKLEY        CLEAR     51  34  52 S3        30.15R
LOGAN            N/A     59  37  44 CALM      30.09S
BLUEFIELD      CLEAR     57  32  38 CALM      30.17R
LEWISBURG      CLEAR     51  37  57 CALM      30.14R
$$

WVZ047-030400-
Northern Mountains of West Virginia

CITY           SKY/WX    TMP DP  RH WIND       PRES   REMARKS
ELKINS         CLEAR     44  40  85 CALM      30.12R
$$

WVZ052-030400-
Eastern Panhandle of West Virginia

CITY           SKY/WX    TMP DP  RH WIND       PRES   REMARKS
MARTINSBURG    CLEAR     55  43  63 S7        30.03R
PETERSBURG     CLEAR     50  42  73 CALM      30.09S
$$



USA.gov is the U.S. government's official web portal to all federal, state and local government web resources and services.